STARLINK-37436, 69365

Orbit data source: Space-Track

STARLINK-37436, 69365 is a payload satellite owned by SpaceX/Seattle (US) in LEO that was launched on Thu, 04 Jun 2026 UTC via an FALCON 9 launch vehicle from the Air Force Eastern Test Range (AFETR). Payload-class satellites include a variety of spacecraft equipped with specific instruments for various scientific and technological missions. These include communications satellites like Starlink; space stations such as the ISS; scientific satellites like the Hubble; Earth observation satellites from companies like Planet Labs, Umbra, and HawkEye 360; GPS; miniature CubeSats for education and research; and military/defense satellites.

Not visible in the next 10 days
Identifier
69365, 2026-123N
Orbit
LEO
Country
Flag of USUS
Related business
Manufacturer
SpaceX/Seattle
Mission
Operational spacecraft
Bus & Motor
STARLINK V2MO, Unknown motor
Mass
575 kg wet, ~530 kg dry
Launch date (UTC)
2026-06-04 (2 months ago)
Launch vehicle
FALCON 9
Launch site
Air Force Eastern Test Range (AFETR)
Object type
Payload
Rocket body
Debris
Shape & HBR
Unknown shape, 17.7 m
Radar Cross Section
Large (>1 m²)

Expand to show TLE details & history
Last TLE update: 11 hours ago

TLE from 11 hours ago
0 STARLINK-37436
1 69365U 26123N   26202.20423682  .00197669  00000-0  12595-2 0  9994
2 69365  53.1570  71.5532 0000741 148.4122 211.6943 15.75315970  7410
Epoch: 2026-07-21T04:54Z
TLE epoch observation values (Epoch: 2026-07-21T04:54:06.061Z)
Latitude
-0°
Longitude
59.05066°
Altitude
345.073 km
Speed
7.703 km/s
True Right ascension
04h 46m 12s
True Declination
0° 00' 00"
Sunlit
Object was in daylight at epoch
Visualization orbit readout
Latitude
Unknown
Longitude
Unknown
Altitude
Unknown
Speed
Unknown
Apparent Right ascension
Unknown
Apparent Declination
Unknown
Sunlit
N/A
Visualization observer readout
Local Sidereal Time
05:02:38
Azimuth
Unknown
Elevation
Unknown
Doppler factor
Unknown
Orbital elements
Apogee altitude
344.492 km
Perigee altitude
343.496 km
Semi-major axis
6,722.131 km
Eccentricity
0.00007
Inclination
53.157°
RAAN
71.5532°
Arg. of periapsis
148.4122°
True anomaly
211.68984°
Mean anomaly
211.6943°
Eccentric anomaly
211.69207°
Mean motion
3.93806 °/min
Orbital period
91.42 mins
BSTAR
0.0012595
Loading maneuver chart data...
Computing Atmospheric mass density...
Loading historical data...
Loading historical data...
Loading historical data...
Loading historical data...
Loading historical data...
Loading historical data...
Loading historical data...

Documentation

Showing up to 5 results
|